www.pogodaiklimat.ru

ПОГОДА в Suphan Buri

  • Прогноз погоды в Suphan Buri
  • Монитор погоды в Suphan Buri
  • Климат города

АРХИВ ПОГОДЫ в Suphan Buri

Время (UTC), дата Ветер
(напр.,м/с)
 
Видим.   Явления Облачность Т
(С)
Тd
(С)
f
(%)
Тe
(С)
Тes
(С)
Комфортность P
(гПа)
Po
(гПа)
Тmin
(С)
Tmax
(С)
R
(мм)
S
(см)
00 10.01 штиль 0 2000 м слабый дождь 10/8 600 м
[Frnb As op]
+24.3 +23.9 98 +33 +33 очень
душно
1009.9 1008.9 +23.3 3
03 10.01 штиль 0 2000 м дымка {дождь} 10/8 600 м
[Frnb As op]
+25.1 +24.7 98 +35 +36 очень
душно
1011.4 1010.4 0.5
06 10.01 штиль 0 4000 м дымка {дождь} 10/8 600 м
[Frnb As op]
+26.0 +24.8 93 +37 +38 очень
душно
1009.7 1008.7 0.3
09 10.01 штиль 0 4000 м дымка 10/6 600 м
[Sc As op]
+26.5 +24.6 89 +37 +38 очень
душно
1008.2 1007.1
12 10.01 штиль 0 3000 м дымка 10/6 600 м
[Sc As op]
+25.7 +24.5 93 +36 +36 очень
душно
1009.4 1008.4 +26.7
15 10.01 штиль 0 1000 м дымка 10/5 600 м
[Sc Ac und Cs]
+25.4 +24.8 96 +36 +36 очень
душно
1010.8 1009.8
18 10.01 штиль 0 1000 м дымка 10/5 600 м
[Sc Ac und Cs]
+25.1 +24.7 98 +35 +35 очень
душно
1010.5 1009.4
21 10.01 штиль 0 400 м туман 10/5 600 м
[Sc Ac und Cs]
+24.7 +24.4 98 +34 +34 очень
душно
1008.7 1007.7
00 11.01 штиль 0 1000 м слабый дождь {туман} 10/8 600 м
[Frnb As op]
+24.8 +24.4 98 +35 +35 очень
душно
1009.9 1008.9 +24.2 0.3
03 11.01 штиль 0 4000 м дымка {дождь} 10/4 600 м
[Sc Ac und Cs]
+26.7 +24.4 87 +37 +41 очень
душно
1011.8 1010.8 0.0
06 11.01 штиль 0 6000 м дымка {дождь} 10/3 600 м
[Sc Ac und Cs]
+29.6 +23.7 71 +41 +47 опасность
перегрева
1009.4 1008.4 0.0
09 11.01 Ю 2 8000 м дымка 10/3 600 м
[Cu med, cong Ac und Cs]
+29.5 +24.5 75 +42 +43 опасность
перегрева
1007.2 1006.2
12 11.01 штиль 0 7000 м дымка 10/4 600 м
[Cu Sc Ac trans Cs]
+27.6 +23.8 80 +38 +38 очень
душно
1013.6 1012.6 +30.5
15 11.01 штиль 0 5000 м дымка 10/5 600 м
[Sc Ac und Cs]
+26.8 +24.0 85 +37 +37 очень
душно
1010.2 1009.2
18 11.01 штиль 0 5000 м дымка 10/4 600 м
[Sc Ac und Cs]
+26.1 +24.5 91 +37 +37 очень
душно
1010.0 1009.0
21 11.01 Ю 2 5000 м дымка 9/3 600 м
[Sc Ac trans Cs]
+25.5 +24.0 91 +35 +35 очень
душно
1007.4 1006.4
00 12.01 штиль 0 4000 м дымка 10/5 600 м
[Cu Sc Ac trans Cs]
+24.6 +24.0 96 +34 +34 очень
душно
1008.2 1007.2 +24.1 0.0
03 12.01 Ю 3 6000 м дымка 10/4 600 м
[Sc As op Cs]
+27.5 +24.6 84 +39 +41 очень
душно
1009.9 1008.9
06 12.01 Ю 3 8000 м мгла 8/5 600 м
[Cu med, cong Ac lent Cs]
+31.6 +24.0 64 +43 +47 опасность
перегрева
1007.5 1006.5
09 12.01 Ю 3 8000 м мгла 8/3 600 м
[Cu med, cong Ac trans Cs]
+32.6 +24.7 63 +46 +47 опасность
перегрева
1005.7 1004.7
12 12.01 штиль 0 7000 м зарница 8/3 600 м
[Cb cap Ac trans Cs]
+28.2 +24.5 80 +40 +40 очень
душно
1006.7 1005.7 +33.5
15 12.01 штиль 0 6000 м слабый дождь {гроза} 10/5 600 м
[Cu Sc Ac As Cs]
+26.0 +24.7 93 +37 +37 очень
душно
1009.3 1008.2 2
18 12.01 штиль 0 4000 м дымка {гроза, дождь} 8/3 600 м
[Sc Ac trans Cs]
+25.1 +24.4 96 +35 +35 очень
душно
1009.2 1008.2 0.1
21 12.01 штиль 0 2000 м дымка 8/3 600 м
[Sc Ac lent Cs]
+24.8 +22.9 89 +33 +33 очень
душно
1008.2 1007.2
00 13.01 штиль 0 1000 м дымка 6/3 600 м
[Cu med, cong Ac trans Cs]
+24.2 +23.9 98 +33 +33 очень
душно
1009.2 1008.2 +23.8 2
03 13.01 штиль 0 8000 м дымка 4/3 600 м
[Sc Cs]
+28.0 +23.0 74 +37 +46 очень
душно
1010.9 1009.9
06 13.01 штиль 0 10 км 5/3 600 м
[Cu hum Cs]
+31.0 +24.4 68 +43 +56 опасность
перегрева
1008.7 1007.7
09 13.01 Ю 2 12 км 3/1 600 м
[Cu hum Cs]
+33.0 +22.2 53 +42 +45 опасность
перегрева
1006.7 1005.7
12 13.01 штиль 0 8000 м дымка 3/0
[Cs]
+28.5 +22.6 70 +37 +37 очень
душно
1007.5 1006.5 +33.5
15 13.01 штиль 0 6000 м дымка 3/0
[Cs]
+26.2 +24.0 88 +36 +36 очень
душно
1009.4 1008.4
18 13.01 штиль 0 4000 м дымка 3/0
[Cs]
+24.7 +23.2 91 +33 +33 очень
душно
1009.6 1008.6
21 13.01 штиль 0 2000 м дымка 3/0
[Cs]
+23.4 +22.0 92 +32 +32 очень
душно
1008.5 1007.4
00 14.01 штиль 0 3000 м дымка 3/0
[Cs]
+22.5 +21.7 95 +30 +30 очень
душно
1009.4 1008.4 +21.7
03 14.01 штиль 0 6000 м дымка 6/0
[Cs]
+27.1 +23.4 80 +37 +48 очень
душно
1011.2 1010.2
06 14.01 штиль 0 8000 м мгла 3/1 600 м
[Cu hum Cs]
+31.7 +23.3 61 +42 +59 опасность
перегрева
1009.4 1008.4
09 14.01 штиль 0 9000 м мгла 3/0
[Cs]
+32.7 +23.5 58 +43 +49 опасность
перегрева
1008.1 1007.1
12 14.01 штиль 0 7000 м дымка 3/0
[Cs]
+29.4 +24.2 74 +41 +41 опасность
перегрева
1009.2 1008.2 +33.1
15 14.01 штиль 0 5000 м дымка 3/0
[Cs]
+27.0 +24.1 84 +37 +37 очень
душно
1011.2 1010.2
18 14.01 штиль 0 4000 м дымка 3/0
[Cs]
+25.7 +23.8 89 +35 +35 очень
душно
1011.5 1010.4
21 14.01 штиль 0 3000 м дымка 3/0
[Cs]
+24.5 +22.9 91 +32 +32 очень
душно
1010.7 1009.7
00 15.01 штиль 0 2000 м дымка 8/1 600 м
[Sc Ac lent Cs]
+23.7 +22.7 94 +31 +31 очень
душно
1012.0 1010.9 +23.0
03 15.01 С 3 4000 м дымка 6/0
[Cs]
+27.8 +23.1 76 +37 +44 очень
душно
1013.4 1012.4
06 15.01 СВ 4 8000 м мгла 6/0
[Cs]
+31.6 +22.7 59 +41 +50 опасность
перегрева
1011.2 1010.2
09 15.01 С 3 8000 м мгла 6/0
[Cs]
+32.5 +21.8 53 +41 +44 опасность
перегрева
1009.6 1008.6
12 15.01 штиль 0 7000 м дымка 6/0
[Cs]
+29.0 +23.5 72 +39 +39 очень
душно
1010.4 1009.4 +33.4
15 15.01 штиль 0 7000 м дымка 6/0
[Cs]
+26.6 +23.5 83 +36 +36 очень
душно
1011.8 1010.7
18 15.01 штиль 0 6000 м дымка 3/0
[Cs]
+25.0 +22.9 88 +33 +33 очень
душно
1011.4 1010.4
21 15.01 штиль 0 4000 м дымка 3/0
[Ci sp]
+23.8 +22.5 92 +31 +31 очень
душно
1010.6 1009.5
00 16.01 штиль 0 2000 м дымка 3/0
[Cs]
+23.0 +22.1 95 +31 +31 очень
душно
1012.0 1011.0 +22.6
03 16.01 С 2 6000 м дымка 3/0
[Cs]
+28.1 +21.9 69 +36 +45 очень
душно
1013.3 1012.3
06 16.01 СВ 2 10 км 6/0
[Cs]
+31.8 +22.3 57 +41 +54 опасность
перегрева
1011.4 1010.4
09 16.01 СВ 1 10 км 6/0
[Cs]
+32.2 +21.6 54 +41 +45 опасность
перегрева
1009.3 1008.3
21 16.01 штиль 0 4000 м дымка 10/4 600 м
[Sc Ac und Cs]
+25.5 +22.7 85 +34 +34 очень
душно
1010.0 1009.0
00 17.01 С 1 4000 м дымка 10/5 600 м
[Sc Ac und Cs]
+25.0 +22.3 85 +33 +33 очень
душно
1011.6 1010.6 +24.1
03 17.01 штиль 0 6000 м дымка 10/4 600 м
[Sc Ac trans Cs]
+27.4 +23.3 78 +37 +41 очень
душно
1014.4 1013.3
06 17.01 СЗ 1 10 км в посл. час дождь 9/4 600 м
[Cu med, cong Ac trans Cs]
+29.4 +23.8 72 +40 +46 очень
душно
1012.3 1011.3

 

Местоположение метеостанции Suphan Buri (Таиланд): широта 14.47 долгота 100.13 высота над уровнем моря 8 м.

В архиве по умолчанию представлена погода в Suphan Buri за последнюю неделю. Архивные данные за месяц целиком и за предыдущие месяцы, начиная с января 2011 года, Вы можете получить, выбрав интересующий диапазон дат из раскрывающегося списка и нажав кнопку "Ввод!".

Внимание! Время в таблицах - всемирное. Для получения местного времени необходимо прибавить поправку, которая в Suphan Buri равна 7 ч.

Ветер - указаны скорость ветра в м/с - средняя за 10 мин, порывы в срок и между сроками (в фигурных скобках) и направление, откуда дует ветер: С - северный, СВ - северо-восточный, В - восточный, ЮВ - юго-восточный, Ю - южный, ЮЗ - юго-западный, З - западный, СЗ - северо-западный.
Видимость - горизонтальная дальность видимости в метрах или километрах. При видимости от 1 до 10 км при отсутствии осадков обычно наблюдается дымка, при ухудшении видимости до 1 км и менее - туман. В сухую погоду видимость может ухудшаться дымом, пылью или мглою.
Явления - указаны атмосферные явления, наблюдавшиеся в срок или в последний час перед сроком; фигурными скобками обозначены явления, наблюдавшиеся между сроками (за 1-3 часа до срока); квадратными скобками обозначены град или гололедные отложения с указанием их диаметра в мм.
Облачность - указаны через наклонную черту общая и нижняя облачность в баллах и высота нижней границы облаков в метрах; квадратными скобками обозначены формы облаков: Ci - перистые, Cs - перисто-слоистые, Cc - перисто-кучевые, Ac - высококучевые, As - высокослоистые, Sc - слоисто-кучевые, Ns - слоисто-дождевые, Cu - кучевые, Cb - кучево-дождевые. Подробнее классификацию облаков см. в Атласе облаков (PDF).
T - Температура воздуха - температура, измеренная на высоте 2 м над землей.
Td - Температура точки росы - температура, при понижении до которой содержащийся в воздухе водяной пар достигнет насыщения.
f - Относительная влажность воздуха - влажноcть воздуха, измеренная на высоте 2 м над землей.
Te - Эффективная температура - температура, которую ощущает одетый по сезону человек в тени. Характеристика душности погоды. При расчете учитывается влияние влажности воздуха и скорости ветра на теплоощущения человека.
Tes - Эффективная температура на солнце - температура, которую ощущает человек, с поправкой на солнечный нагрев. Характеристика знойности погоды. Зависит от высоты солнца над горизонтом, облачности и скорости ветра. Ночью, в пасмурную погоду, а также при ветре 12 м/с и более поправка равна нулю.
P - Атмосферное давление - приведенное к уровню моря атмосферное давление.
Po - Атмосферное давление - измеренное на уровне метеостанции атмосферное давление.
Tmin - Минимальная температура - минимум температуры воздуха на высоте 2 м над землей.
Tmax - Максимальная температура - максимум температуры воздуха на высоте 2 м над землей.
R - Количество осадков - Количество выпавших осадков, мм. При наведении курсора мыши на число - период времени, за который выпало указанное количество осадков.
S - Снежный покров - Высота снежного покрова, см. При наведении курсора мыши на число - состояние снежного покрова и степень покрытия местности в баллах.